TimeCST,TemperatureF,Dew PointF,Humidity,Sea Level PressureIn,VisibilityMPH,Wind Direction,Wind SpeedMPH,Gust SpeedMPH,PrecipitationIn,Events,Conditions,WindDirDegrees,DateUTC
12:15 AM,45.5,36.5,71,30.18,10.0,Calm,Calm,-,N/A,,Clear,0,2013-11-21 06:15:00
12:35 AM,45.7,36.5,70,30.18,10.0,ESE,3.5,-,N/A,,Clear,110,2013-11-21 06:35:00
12:55 AM,45.5,37.8,74,30.18,10.0,ESE,3.5,-,N/A,,Clear,110,2013-11-21 06:55:00
1:15 AM,45.5,38.1,75,30.19,10.0,ESE,3.5,-,N/A,,Clear,110,2013-11-21 07:15:00
1:35 AM,45.7,37.8,74,30.19,10.0,SE,5.8,-,N/A,,Clear,140,2013-11-21 07:35:00
1:55 AM,46.0,38.3,74,30.19,10.0,SE,6.9,-,N/A,,Scattered Clouds,130,2013-11-21 07:55:00
2:15 AM,45.9,38.8,76,30.18,10.0,SE,8.1,-,N/A,,Scattered Clouds,130,2013-11-21 08:15:00
2:35 AM,46.6,39.2,75,30.19,10.0,Calm,Calm,-,N/A,,Scattered Clouds,0,2013-11-21 08:35:00
2:55 AM,47.7,39.0,72,30.17,10.0,SSE,5.8,-,N/A,,Mostly Cloudy,150,2013-11-21 08:55:00
3:15 AM,47.7,39.0,72,30.17,10.0,SSE,9.2,-,N/A,,Scattered Clouds,150,2013-11-21 09:15:00
3:35 AM,48.9,39.6,70,30.18,10.0,South,4.6,-,N/A,,Mostly Cloudy,170,2013-11-21 09:35:00
3:55 AM,49.3,39.9,70,30.18,10.0,SSE,5.8,-,N/A,,Overcast,160,2013-11-21 09:55:00
4:15 AM,50.0,39.9,68,30.18,10.0,South,8.1,-,N/A,,Overcast,180,2013-11-21 10:15:00
4:35 AM,49.8,40.5,70,30.17,10.0,SSE,8.1,-,N/A,,Overcast,160,2013-11-21 10:35:00
4:55 AM,49.6,40.8,72,30.18,10.0,South,6.9,-,N/A,,Mostly Cloudy,170,2013-11-21 10:55:00
5:15 AM,49.3,41.0,73,30.17,10.0,SSE,6.9,-,N/A,,Scattered Clouds,150,2013-11-21 11:15:00
5:35 AM,49.6,41.0,72,30.18,10.0,South,9.2,-,N/A,,Mostly Cloudy,170,2013-11-21 11:35:00
5:55 AM,50.0,41.2,72,30.17,10.0,SSE,10.4,-,N/A,,Mostly Cloudy,160,2013-11-21 11:55:00
6:15 AM,50.2,41.2,71,30.19,10.0,South,9.2,-,N/A,,Mostly Cloudy,190,2013-11-21 12:15:00
6:35 AM,51.1,41.0,68,30.22,10.0,South,5.8,-,N/A,,Mostly Cloudy,190,2013-11-21 12:35:00
6:55 AM,50.9,41.5,70,30.22,10.0,South,6.9,-,N/A,,Overcast,180,2013-11-21 12:55:00
7:15 AM,51.3,41.9,70,30.23,10.0,South,6.9,-,N/A,,Overcast,180,2013-11-21 13:15:00
7:35 AM,51.4,42.3,71,30.23,10.0,South,8.1,-,N/A,,Overcast,180,2013-11-21 13:35:00
7:55 AM,51.1,43.2,74,30.22,10.0,South,6.9,-,N/A,,Overcast,170,2013-11-21 13:55:00
8:15 AM,51.1,43.9,76,30.23,10.0,South,8.1,-,N/A,,Overcast,170,2013-11-21 14:15:00
8:35 AM,51.4,43.7,75,30.23,10.0,South,8.1,-,N/A,,Overcast,180,2013-11-21 14:35:00
8:55 AM,51.8,44.1,75,30.24,10.0,South,8.1,-,N/A,,Overcast,190,2013-11-21 14:55:00
9:15 AM,51.8,44.8,77,30.23,10.0,South,9.2,-,N/A,,Overcast,170,2013-11-21 15:15:00
9:35 AM,52.3,45.0,76,30.23,10.0,South,6.9,-,N/A,,Overcast,190,2013-11-21 15:35:00
9:55 AM,52.9,45.5,76,30.23,10.0,South,4.6,-,N/A,,Overcast,180,2013-11-21 15:55:00
10:15 AM,53.1,45.9,77,30.23,10.0,South,4.6,-,N/A,,Overcast,170,2013-11-21 16:15:00
10:35 AM,53.6,46.6,77,30.22,10.0,South,10.4,-,N/A,,Overcast,180,2013-11-21 16:35:00
10:55 AM,54.5,46.8,75,30.20,10.0,South,6.9,-,N/A,,Overcast,170,2013-11-21 16:55:00
11:15 AM,54.5,47.1,76,30.20,10.0,South,6.9,-,N/A,,Overcast,170,2013-11-21 17:15:00
11:35 AM,55.4,47.5,75,30.19,10.0,South,8.1,-,N/A,,Overcast,190,2013-11-21 17:35:00
11:55 AM,55.6,47.3,74,30.18,10.0,South,9.2,-,N/A,,Overcast,190,2013-11-21 17:55:00
12:15 PM,55.6,47.3,74,30.18,10.0,South,6.9,-,N/A,,Overcast,190,2013-11-21 18:15:00
12:35 PM,55.8,48.2,76,30.19,10.0,SSW,4.6,-,N/A,Rain,Light Rain,210,2013-11-21 18:35:00
12:55 PM,54.7,50.0,84,30.19,10.0,SW,5.8,-,N/A,Rain,Rain,220,2013-11-21 18:55:00
1:15 PM,53.6,50.9,91,30.20,4.0,SW,3.5,-,N/A,Rain,Heavy Rain,220,2013-11-21 19:15:00
1:35 PM,52.9,51.1,94,30.19,4.0,Calm,Calm,-,N/A,Rain,Rain,0,2013-11-21 19:35:00
1:55 PM,52.7,51.8,97,30.19,2.0,Calm,Calm,-,N/A,Rain,Heavy Rain,0,2013-11-21 19:55:00
2:15 PM,52.3,51.8,98,30.19,3.0,Calm,Calm,-,N/A,Rain,Rain,0,2013-11-21 20:15:00
2:35 PM,52.3,52.3,100,30.19,2.5,Calm,Calm,-,N/A,Rain,Rain,0,2013-11-21 20:35:00
2:55 PM,52.2,52.2,100,30.19,2.0,Calm,Calm,-,N/A,Rain,Rain,0,2013-11-21 20:55:00
3:15 PM,51.8,51.8,100,30.19,2.0,SE,3.5,-,N/A,Rain,Rain,130,2013-11-21 21:15:00
3:35 PM,51.4,51.4,100,30.17,1.8,ESE,8.1,-,N/A,Rain,Heavy Rain,110,2013-11-21 21:35:00
3:55 PM,51.4,51.4,100,30.18,2.0,SE,4.6,-,N/A,Rain,Rain,140,2013-11-21 21:55:00
4:15 PM,51.4,51.4,100,30.19,2.5,SSE,5.8,-,N/A,Rain,Rain,150,2013-11-21 22:15:00
4:35 PM,51.8,51.8,100,30.18,2.0,ESE,8.1,-,N/A,Rain,Rain,120,2013-11-21 22:35:00
4:55 PM,51.8,51.8,100,30.18,2.0,SE,6.9,-,N/A,Rain,Light Rain,140,2013-11-21 22:55:00
5:15 PM,51.8,51.8,100,30.17,5.0,SE,4.6,-,N/A,,Scattered Clouds,140,2013-11-21 23:15:00
5:35 PM,51.8,51.8,100,30.18,4.0,ESE,4.6,-,N/A,Rain,Light Rain,120,2013-11-21 23:35:00
5:55 PM,51.4,51.4,100,30.17,4.0,ESE,3.5,-,N/A,Rain,Light Rain,110,2013-11-21 23:55:00
6:15 PM,51.6,51.6,100,30.18,4.0,ESE,3.5,-,N/A,Rain,Light Rain,120,2013-11-22 00:15:00
6:35 PM,51.8,51.8,100,30.17,5.0,ESE,3.5,-,N/A,,Overcast,120,2013-11-22 00:35:00
6:55 PM,51.8,51.8,100,30.18,5.0,Calm,Calm,-,N/A,,Overcast,0,2013-11-22 00:55:00
7:15 PM,52.0,52.0,100,30.19,5.0,Calm,Calm,-,N/A,,Overcast,0,2013-11-22 01:15:00
7:35 PM,52.7,52.7,100,30.19,5.0,Calm,Calm,-,N/A,,Overcast,0,2013-11-22 01:35:00
7:55 PM,52.2,52.2,100,30.19,4.0,Calm,Calm,-,N/A,,Overcast,0,2013-11-22 01:55:00
8:15 PM,52.2,52.2,100,30.19,3.0,Calm,Calm,-,N/A,,Overcast,0,2013-11-22 02:15:00
8:35 PM,52.9,52.9,100,30.19,7.0,Calm,Calm,-,N/A,,Overcast,0,2013-11-22 02:35:00
8:55 PM,52.7,52.7,100,30.20,5.0,Calm,Calm,-,N/A,,Overcast,0,2013-11-22 02:55:00
9:15 PM,52.3,52.3,100,30.19,3.0,Calm,Calm,-,N/A,,Overcast,0,2013-11-22 03:15:00
9:35 PM,52.5,52.5,100,30.19,3.0,Calm,Calm,-,N/A,,Overcast,0,2013-11-22 03:35:00
9:55 PM,52.3,52.3,100,30.19,3.0,Calm,Calm,-,N/A,,Overcast,0,2013-11-22 03:55:00
10:15 PM,52.3,52.3,100,30.20,4.0,NNW,3.5,-,N/A,,Overcast,340,2013-11-22 04:15:00
10:35 PM,52.3,52.3,100,30.19,4.0,Calm,Calm,-,N/A,,Overcast,0,2013-11-22 04:35:00
10:55 PM,52.2,52.2,100,30.20,3.0,North,3.5,-,N/A,Rain,Rain,350,2013-11-22 04:55:00
11:15 PM,52.3,52.3,100,30.19,2.0,NNE,3.5,-,N/A,,Drizzle,20,2013-11-22 05:15:00
11:35 PM,52.7,52.7,100,30.19,2.0,Calm,Calm,-,N/A,,Drizzle,0,2013-11-22 05:35:00
11:55 PM,52.3,52.3,100,30.20,1.5,Calm,Calm,-,N/A,,Drizzle,0,2013-11-22 05:55:00